Regional Weather Roundup
Issued by NWS

Home | Current Version | Previous Version | Graphics & Text | Print | Product List | Glossary On
Versions: 1 2 3 4 5 6 7 8 9 10 11 12 13 14 15 16 17 18 19 20 21 22 23 24 25 26 27 28 29 30 31 32 33 34 35 36 37 38 39 40 41 42 43 44 45 46 47 48 49 50
128
ASUS45 KBOU 232007
RWRCO

WEATHER ROUNDUP FOR COLORADO
NATIONAL WEATHER SERVICE DENVER/BOULDER CO
200 PM MDT THU MAR 23 2017

NOTE: "FAIR" INDICATES FEW OR NO CLOUDS BELOW 12000 FEET WITH NO
SIGNIFICANT WEATHER AND/OR OBSTRUCTIONS TO VISIBILITY.

COZ001>005-013-030-031-232100-
...NORTHWEST COLORADO...

CITY           SKY/WX    TMP DP  RH WIND       PRES   REMARKS
CRAIG          PTSUNNY   57  21  24 SW20G29   29.69S
HAYDEN         FAIR      57  18  21 SW16G25   29.69S
MEEKER         PTSUNNY   53  25  33 S17G31    29.71F
MOUNT WERNER   NOT AVBL
STEAMBOAT SPGS FAIR      55  20  25 SW10G16   29.69F
WALDEN         NOT AVBL
$$

COZ006>008-011-232100-
...WEST CENTRAL VALLEYS...

CITY           SKY/WX    TMP DP  RH WIND       PRES   REMARKS
GRAND JUNCTION FAIR      56  32  40 SE5       29.72S
MONTROSE       CLOUDY    50  32  50 W10       29.76R
EAGLE          MOSUNNY   54  28  37 W29G37    29.73F
RIFLE          FAIR      56  30  37 W16       29.71F
DELTA          CLOUDY    53  32  46 W17G23    29.76S
NUCLA          CLOUDY    43  37  81 SE5       29.83F
$$

COZ017>023-064>068-232100-
...SOUTHWEST COLORADO...

CITY           SKY/WX    TMP DP  RH WIND       PRES   REMARKS
DURANGO        LGT RAIN  39  37  92 SW15      29.83R
CORTEZ         CLOUDY    41  37  86 NW14      29.81S
PAGOSA SPRINGS TSTM      48  31  51 SW21G32   29.77F
TELLURIDE      NOT AVBL
WOLF CREEK PAS TSTM      30  23  74 S21G32    29.88F WCI  17
$$

COZ009-010-012-014-032>034-037-058>063-232100-
...CENTRAL COLORADO...

CITY           SKY/WX    TMP DP  RH WIND       PRES   REMARKS
ASPEN          FAIR      54  14  20 S16G24    29.71F
BUENA VISTA    PTSUNNY   56  11  16 S21G32    29.72F
COPPER MTN     NOT AVBL
BERTHOUD PASS  CLOUDY    32  23  69 SW28      29.88F WCI  18
COTTONWOOD PAS CLOUDY    50   9  18 CALM      29.81F
GUNNISON       FAIR      50  20  30 SW8G17    29.75F
KREMMLING      PTSUNNY   61  16  17 W16G26    29.71S
LEADVILLE      FAIR      44   8  23 S17G28    29.77F
MONARCH PASS   PTSUNNY   34  14  44 SW38G58   29.97F WCI  19
SALIDA         PTSUNNY   59  13  16 SW10G16   29.79F
SUNLIGHT       CLOUDY    32  27  80 W7        29.88F HAZE    WCI  26
WILKERSON PASS FAIR      46  10  23 SW13G25   29.88F
$$

COZ069>075-232100-
...SAN LUIS VALLEY/SANGRE DE CRISTO MOUNTAINS...

CITY           SKY/WX    TMP DP  RH WIND       PRES   REMARKS
ALAMOSA        FAIR      62  11  13 S35G44    29.72F
LA VETA PASS   NOT AVBL
SAGUACHE       FAIR      59  14  17 W21G31    29.74F
$$

COZ035-036-038>040-232100-
...NORTHERN COLORADO FRONT RANGE...

CITY           SKY/WX    TMP DP  RH WIND       PRES   REMARKS
DENVER INTL AP FAIR      74  12   9 SW12G29   29.57F
DMNS CITY PARK   N/A     73   9   8 SE13G28   29.57F
AURORA         MOSUNNY   73  10   8 SW14G21   29.59F
FRONT RANGE AP MOSUNNY   75  14   9 S15G30    29.60F
ERIE MUNI ARPT FAIR      77   6   6 S13G24    29.55F
BOULDER MUN AP FAIR      73  16  11 S12G18    29.54F
CENTENNIAL     FAIR      72   5   7 S25G43    29.61F
BROOMFIELD     NOT AVBL
FORT COLLINS   FAIR      73  13  10 S15G24    29.55F
LONGMONT       FAIR      78  12   8 S14G24    29.55F
$$

COZ041-046-047-076>085-087-088-232100-
...PIKES PEAK/PALMER DIVIDE AND SOUTHERN FOOTHILLS...

CITY           SKY/WX    TMP DP  RH WIND       PRES   REMARKS
COLO. SPRINGS  FAIR      72   6   7 SW36      29.64F
A. F. ACADEMY  FAIR      68  12  11 S14G28    29.66F
SCHRIEVER AFB  FAIR      71  12  10 SW24G38   29.66F
ELLICOTT         N/A    N/A N/A N/A SW18      29.64F
FALCON         FAIR      67  11  11 SW21G31   29.69F
FORT CARSON    SUNNY     70   5   8 SW29G43   29.61F
LIMON          FAIR      74  14  10 S16G29    29.63F
MONUMENT HILL  FAIR      64  12  13 SW24G36   29.70F
TRINIDAD       FAIR      76   9   7 S36G54    29.61F
$$

COZ042>045-048>051-090-091-232100-
...NORTHEAST COLORADO...

CITY           SKY/WX    TMP DP  RH WIND       PRES   REMARKS
GREELEY ARPT   FAIR      77  14   9 SW15G23   29.55F
AKRON          FAIR      78  19  11 MISG      29.57F
BURLINGTON     FAIR      81  33  17 S22G35    29.61F
WRAY           FAIR      82  43  24 E12G18    29.56F
STERLING       FAIR      75  32  20 S3        29.57F
HOLYOKE        FAIR      81  39  22 E8        29.57F
FORT MORGAN    FAIR      75  24  14 E10       29.58F
$$

COZ086-089-092>099-232100-
...SOUTHEAST COLORADO...

CITY           SKY/WX    TMP DP  RH WIND       PRES   REMARKS
PUEBLO         FAIR      80  12   7 SW21G30   29.55F
LA JUNTA       FAIR      84  16   8 S25G32    29.55F
LAMAR          FAIR      88  18   7 SW32G41   29.54F
SPRINGFIELD      N/A     81  18   9 S32G49    29.63F
$$




USA.gov is the U.S. government's official web portal to all federal, state and local government web resources and services.